Погода в Дигане

Шри-Ланка     7°17′10″N   80°44′12″E
темп.,
°C
ветер,
м/с
пор.,
м/с
влажн.,
%
обл.,
%
осадки,
мм/ч
давл.,
гПа
погр.,
м
12 августа, пт
пт1223:30+21зюз2381100 0.0 101263
02:30+20зюз3588100 0.0 1010139
05:30+20зюз259316 0.0 1010121
08:30+24зюз487232 0.0 1011962
11:30+26з4765100 0.1 10101343
14:30+26з466280 0.3 10081419
17:30+24з357296 0.4 1009797
20:30+21зюз2385100 0.0 101172
13 августа, сб
сб1323:30+21зюз2281100 0.0 101163
02:30+20зюз2283100 0.0 100966
05:30+19зюз2287100 0.0 101048
08:30+24з246974 0.0 1011569
11:30+27з345855 0.0 10101234
14:30+27зсз346457 0.3 10071167
17:30+25зсз2373100 0.4 1008569
20:30+21зюз2289100 0.0 101143
14 августа, вс
вс1423:30+20зюз2292100 0.0 101053
02:30+20зюз2286100 0.0 100936
05:30+19зюз2289100 0.0 101048
08:30+23з2373100 0.0 1011407
11:30+27зсз3358100 0.0 10101107
14:30+27зсз3358100 0.1 10081287
17:30+24зсз237499 0.3 1009469
20:30+21зюз2291100 0.3 101138
15 августа, пн
пн1523:30+20юз2191100 0.3 101131
02:30+20зюз2285100 0.0 100927
05:30+19зюз2284100 0.0 101025
08:30+24з226789 0.0 1011432
11:30+29сз124992 0.0 10101477
14:30+27с1162100 0.3 1008769
17:30+24сз1283100 3.9 100938
20:30+21зюз1194100 0.3 101116
16 августа, вт
вт1623:30+21юз1196100 0.6 101122
02:30+20зюз1296100 4.8 101059
05:30+20юз129652 7.6 101153
08:30+23з128162 0.3 1012369
11:30+27ссз22637 1.3 10111088
14:30+27зсз226617 3.8 1008969
17:30+24сз118027 7.5 100951
20:30+22с019145 1.6 101118